Theta_e
294 295 295 294 294 293 292 292 292 293 294 296 297 297 296 296 296 293 292 291 290 289 289 289 288 290 289 290 291 292 292 297 292 286 286 284 284 284 284 285 284 283 284
293 292 292 291 291 291 290 290 291 290 291 291 292 292 291 291 290 289 288 288 287 287 287 287 287 288 288 288 287 287 288 292 293 286 285 283 282 283 283 282 283 283 282
291 292 290 290 289 288 288 289 289 288 288 288 288 288 288 288 288 287 287 287 286 286 286 285 285 286 285 285 285 285 285 286 288 286 281 282 282 281 282 283 282 282 282
290 289 288 288 288 288 287 287 287 287 286 286 286 285 286 286 286 286 286 286 286 286 286 285 284 284 283 283 283 283 284 283 283 282 281 280 280 281 281 279 278 280 279
288 287 286 287 287 287 286 286 286 287 286 287 287 287 286 286 286 286 285 285 284 283 283 283 283 283 284 283 282 282 283 282 281 281 280 279 278 278 276 278 277 277 279
286 284 285 285 285 285 285 285 285 286 286 286 286 286 285 285 286 286 285 283 283 282 281 281 282 282 282 283 283 283 282 280 279 279 278 277 276 277 277 276 276 274 273
284 283 283 283 283 283 284 284 284 284 285 285 286 285 284 284 285 284 285 283 282 281 280 279 279 280 280 280 281 281 280 281 281 279 277 276 276 276 276 275 275 273 273
282 282 283 283 282 283 283 283 283 283 283 283 284 284 283 283 284 283 283 282 281 281 281 281 280 279 280 279 278 278 278 278 278 278 278 277 277 277 277 276 274 274 275
281 281 281 282 281 281 281 281 282 282 282 281 282 282 281 281 282 282 281 280 280 279 280 281 281 280 280 280 278 277 277 277 278 278 277 277 276 276 276 275 272 270 270
280 280 281 282 282 281 280 280 281 281 280 280 280 281 282 280 282 281 281 280 278 278 279 280 281 280 280 280 278 278 276 276 276 275 275 275 275 274 274 273 272 268 268
280 280 280 281 281 281 280 280 280 279 279 279 278 279 279 280 281 281 280 279 279 278 278 278 279 280 280 279 278 277 276 276 275 273 273 274 274 274 274 273 272 270 268
279 279 279 279 279 279 279 279 279 279 278 277 277 278 278 279 281 280 280 280 279 279 278 278 278 278 278 277 277 276 275 273 273 272 272 272 272 272 272 271 270 269 270
278 276 277 277 279 279 279 278 278 278 278 277 277 277 277 278 280 280 280 279 278 277 278 277 277 277 277 276 275 275 271 272 272 271 271 272 272 271 269 268 268 268 267
276 276 276 276 277 277 278 279 279 278 277 277 277 277 277 276 277 278 277 277 277 277 276 276 276 277 277 276 272 274 273 272 271 271 271 271 270 268 268 269 266 267 267
277 276 276 277 276 276 277 277 277 278 278 278 278 278 277 275 276 278 277 277 277 277 274 275 275 274 274 274 274 272 272 271 270 271 269 269 269 269 268 268 266 265 264
275 274 276 276 276 276 276 275 276 277 277 278 278 277 278 277 276 277 278 278 278 278 275 275 274 274 273 273 272 272 272 269 270 270 269 268 268 268 268 268 268 266 265
276 276 276 275 276 275 274 275 275 275 277 278 279 279 278 277 277 278 278 279 279 279 275 276 275 274 274 273 272 271 271 271 268 267 267 267 268 268 267 267 267 266 266
276 274 276 275 276 275 275 275 275 275 274 274 277 278 279 279 279 278 278 278 275 276 275 275 275 275 274 273 272 271 270 269 268 268 267 267 266 267 266 266 267 265 265
275 276 275 277 276 275 275 275 274 274 274 274 274 273 273 277 278 279 279 276 275 274 275 274 275 274 273 273 272 270 269 268 268 267 267 266 266 266 265 265 265 263 263
274 272 273 276 275 273 273 273 273 272 272 272 272 272 272 267 269 271 273 274 274 275 275 275 275 274 273 271 270 269 268 268 267 267 266 266 266 266 265 264 264 263 263
275 274 271 273 274 273 273 272 272 272 271 271 272 272 273 269 269 270 270 271 272 272 272 272 271 271 270 269 268 268 268 268 268 267 267 267 266 265 264 265 264 264 262
275 274 271 272 273 273 272 272 272 271 271 271 271 271 274 270 268 268 269 269 269 270 270 269 269 270 269 269 268 268 267 267 267 266 266 266 265 264 263 263 263 263 262
274 273 273 272 272 270 271 270 271 271 270 270 270 269 268 267 268 269 270 269 269 269 269 268 267 267 268 267 268 267 266 266 267 265 265 265 265 264 263 263 263 262 262
272 272 272 272 271 270 270 270 270 267 268 269 269 269 268 267 267 267 267 267 267 267 266 266 265 265 266 266 267 267 266 266 266 264 263 264 264 264 262 262 261 261 262
271 271 270 270 270 269 268 268 269 269 268 267 267 267 267 267 266 266 266 266 264 264 264 264 264 264 264 263 264 264 265 267 266 265 264 263 263 261 262 261 260 261 260
269 269 269 269 268 268 268 268 268 268 267 267 267 267 266 266 266 265 265 264 263 262 262 263 263 264 264 264 264 265 265 266 264 264 264 263 262 262 261 261 260 260 258
Wind_Speed
8 7 7 7 7 8 7 7 7 7 7 7 7 8 9 9 8 9 10 9 10 8 7 8 8 7 6 6 5 6 6 5 5 3 3 2 3 3 4 2 2 3 3
7 6 7 7 7 8 8 8 8 8 8 8 8 9 9 10 9 10 10 9 8 10 8 8 9 6 7 7 6 8 7 6 3 5 3 3 4 4 3 4 4 4 3
5 6 7 8 8 8 8 8 8 8 8 9 9 9 9 9 9 9 9 10 9 10 9 9 9 8 8 6 7 6 6 6 6 5 3 2 3 4 4 4 3 3 4
6 7 7 9 9 9 9 9 8 7 8 8 9 9 8 9 9 9 9 10 10 10 11 11 10 9 8 7 6 6 6 5 5 5 4 3 3 3 3 4 5 4 5
7 7 8 7 8 9 9 9 8 8 8 8 9 9 9 8 6 8 9 9 9 10 10 10 11 12 18 16 6 7 6 5 4 4 4 4 4 3 4 3 4 6 4
7 7 7 7 8 7 8 8 7 8 8 8 9 9 10 8 13 13 10 8 8 8 7 8 8 8 13 18 18 19 14 6 6 4 4 3 3 3 3 4 4 4 4
7 7 7 7 8 7 7 8 8 8 8 8 8 9 10 10 13 13 11 7 8 7 6 6 6 5 7 6 10 12 12 15 12 5 5 3 3 4 4 5 5 5 4
7 7 6 6 7 6 7 8 7 7 7 7 7 8 8 8 12 13 12 8 8 8 7 6 7 7 7 5 5 5 6 7 7 5 5 4 4 4 5 4 5 6 7
6 6 5 5 5 6 6 6 6 6 7 6 6 6 7 7 10 10 8 6 7 7 6 6 5 7 8 6 4 4 2 3 5 6 5 5 5 5 5 4 2 4 3
4 5 5 4 5 6 5 5 5 6 6 5 6 5 6 6 7 8 6 3 5 4 4 4 7 5 5 8 4 2 1 2 3 4 3 2 3 2 3 4 3 2 2
4 3 3 4 4 4 5 4 4 5 5 5 5 5 5 4 4 5 4 2 3 3 3 2 2 4 4 5 4 3 4 3 3 1 2 2 2 2 1 1 3 2 3
5 4 3 4 3 3 3 3 3 3 4 3 3 3 2 2 3 4 4 3 2 2 2 1 2 1 1 2 3 3 2 3 1 2 2 2 2 1 1 1 2 3 5
5 4 3 3 3 3 3 2 2 1 2 2 2 2 2 2 1 3 4 4 3 1 1 1 1 1 2 3 2 3 2 2 2 2 2 2 1 2 3 4 3 5 7
5 4 4 3 3 2 2 2 2 3 2 2 3 3 2 2 3 2 2 2 1 2 3 2 2 4 4 5 2 3 3 2 2 2 2 1 1 2 3 2 2 3 5
5 4 4 3 3 3 2 2 2 1 2 2 3 3 3 3 4 6 5 3 3 3 2 1 3 3 3 3 3 3 3 3 4 3 2 2 3 3 3 2 2 3 4
5 4 4 4 4 3 3 3 6 7 6 9 7 4 2 5 1 6 9 10 9 9 3 4 4 4 4 3 3 3 2 3 3 2 2 3 3 4 4 2 3 4 6
6 6 5 5 5 5 4 4 4 5 9 10 11 11 10 7 8 10 10 11 12 11 5 6 6 4 4 3 3 3 3 2 2 2 2 3 3 4 5 5 5 5 7
5 5 5 5 5 5 5 5 4 4 4 4 10 10 12 13 12 11 11 10 6 8 4 6 6 5 4 4 3 3 3 2 3 3 3 4 3 5 5 6 6 6 7
7 6 6 5 5 5 4 4 4 4 4 4 2 4 6 12 11 12 13 6 7 7 6 6 6 5 5 4 3 3 3 3 2 2 3 3 4 4 6 6 7 8 8
5 5 5 5 4 5 5 5 5 5 5 5 5 5 4 2 4 5 6 6 6 6 6 5 4 4 5 4 4 3 3 4 4 5 6 5 5 5 6 7 7 7 7
5 5 6 5 6 6 5 6 6 5 6 6 6 5 10 5 5 5 5 5 6 6 6 5 4 4 4 4 4 4 5 6 5 5 5 5 5 5 5 6 7 7 6
6 6 6 7 6 6 6 5 5 6 6 6 5 5 11 6 6 5 5 6 5 5 4 4 5 5 5 6 5 6 6 7 6 5 6 6 5 5 4 6 6 6 6
5 5 5 5 5 5 5 5 6 6 6 6 5 4 4 5 6 6 6 5 5 5 5 5 6 6 5 5 6 7 8 8 6 4 5 6 6 5 4 6 5 5 6
6 6 6 5 5 5 5 5 5 6 6 6 6 5 5 5 6 7 7 6 6 6 6 5 6 8 7 7 7 7 8 7 5 4 6 7 7 5 4 5 4 5 6
4 5 5 5 5 5 5 6 6 6 6 6 6 6 6 6 7 7 6 6 6 6 7 6 7 8 11 13 12 11 10 12 9 8 6 6 7 6 6 4 4 5 6
4 5 4 4 4 5 5 5 6 6 6 6 6 6 6 6 6 6 6 5 6 6 7 7 8 12 12 10 12 12 12 13 12 12 8 7 7 6 6 6 7 5 5
Wind_Direction
49 53 58 48 48 52 53 48 46 46 45 44 53 66 68 67 70 79 73 69 77 70 57 63 63 47 41 40 30 34 36 7 97 107 92 117 82 35 52 34 13 5 18
53 58 64 59 54 56 56 55 52 56 49 56 59 64 68 72 65 73 75 70 66 68 61 53 52 48 48 36 42 42 37 16 63 109 115 103 60 30 21 14 1 2 352
58 66 73 70 65 61 60 57 59 62 60 61 62 68 72 74 79 78 82 82 74 67 62 59 51 50 48 41 42 42 39 39 40 82 107 76 94 35 1 12 0 345 348
65 66 63 63 66 67 64 63 61 65 74 74 71 68 70 72 73 77 81 80 76 69 62 55 50 44 44 45 47 38 44 52 55 69 73 75 46 36 357 14 342 351 324
76 70 65 63 73 75 72 72 65 67 66 68 83 82 74 70 69 76 78 80 81 78 69 66 60 58 60 52 48 31 34 54 51 64 61 54 38 17 13 335 330 331 320
78 74 71 74 73 73 75 79 76 72 71 70 68 70 73 71 73 77 80 81 78 78 79 71 61 62 63 60 61 59 50 39 53 56 53 58 46 15 353 343 342 349 339
90 81 81 79 80 74 77 78 77 76 74 72 71 74 75 74 74 73 71 79 80 75 76 78 73 55 51 60 62 66 58 60 56 49 81 47 32 14 342 339 351 336 307
98 94 89 93 88 83 84 78 74 73 73 72 75 78 81 79 78 77 75 78 78 72 68 71 79 71 52 45 62 65 63 55 43 41 49 42 23 355 346 345 321 314 287
109 102 97 98 100 93 87 85 83 88 80 74 71 79 86 84 77 72 77 80 84 78 67 50 72 75 53 44 66 68 75 72 75 49 45 33 22 11 1 329 348 327 307
118 117 113 105 113 110 104 95 79 81 93 88 83 65 75 92 85 77 76 94 97 97 84 90 69 93 73 44 36 25 34 37 7 2 359 354 340 340 335 340 336 317 316
103 104 97 104 109 114 108 104 108 111 107 94 92 71 62 40 83 83 75 96 128 144 144 132 89 58 50 46 18 19 37 12 338 320 303 274 264 273 280 323 311 293 278
129 115 90 76 73 86 90 93 91 106 103 95 103 106 82 32 82 100 94 100 120 142 155 146 131 85 55 12 4 18 21 315 279 274 261 254 266 280 299 329 317 270 269
130 121 115 98 95 102 126 127 132 113 141 146 180 175 170 167 120 81 102 103 88 104 123 117 226 282 276 294 293 298 264 253 274 270 265 280 329 345 312 265 246 241 235
139 144 143 151 152 151 157 168 183 185 190 193 210 217 187 193 200 186 187 189 184 166 178 177 258 279 265 283 286 254 239 251 271 267 261 267 261 241 256 269 294 301 294
148 151 169 179 187 170 210 197 220 233 223 217 222 224 202 219 218 210 205 197 206 213 146 221 235 225 239 238 228 208 230 214 228 231 233 258 258 262 260 231 249 278 251
161 171 185 188 185 195 195 218 231 245 236 240 250 243 238 257 251 228 225 230 225 217 202 251 251 240 252 260 256 261 222 223 244 239 240 244 264 273 278 266 266 253 269
185 177 185 202 193 190 197 209 218 207 239 241 239 238 235 245 247 236 235 238 236 239 236 239 253 254 256 248 243 238 247 227 147 228 252 260 266 269 270 266 263 266 271
189 178 195 193 203 200 202 207 215 228 220 220 235 239 242 241 238 233 241 249 247 246 241 250 255 249 247 250 242 237 233 223 217 223 239 243 243 259 274 270 271 275 279
191 197 200 201 201 205 201 208 212 220 232 241 162 233 250 245 251 252 249 237 233 236 232 230 238 252 257 254 247 243 238 241 246 253 250 244 245 244 262 267 273 271 273
202 205 184 199 194 202 208 212 214 220 227 228 228 226 165 150 219 224 229 241 246 250 257 252 244 244 245 243 247 243 246 239 233 230 238 240 246 240 256 263 262 270 272
195 192 196 211 208 204 210 213 217 218 221 226 230 213 212 210 223 225 225 231 240 246 247 244 238 229 226 228 235 243 244 248 242 245 247 250 247 250 244 254 266 269 271
194 196 185 209 207 208 213 217 217 224 228 231 235 223 237 224 222 231 235 238 239 239 238 241 238 229 222 222 226 234 242 246 245 236 242 245 244 246 243 254 261 269 275
201 207 206 205 214 211 213 223 226 228 234 237 237 231 204 226 237 238 240 236 235 233 229 227 233 237 234 230 230 234 244 248 246 222 239 252 250 244 235 254 263 272 274
207 211 217 214 210 218 223 230 227 228 242 237 233 230 229 229 229 236 238 239 235 235 231 229 231 236 241 238 239 234 235 243 243 236 233 248 254 252 245 249 242 255 270
209 215 219 221 217 212 230 232 237 234 231 226 235 234 232 228 231 235 238 236 233 235 238 234 237 240 237 237 238 239 241 250 237 224 229 232 238 235 240 243 245 257 263
209 217 224 220 225 225 227 231 230 230 232 232 232 234 235 233 234 235 233 232 236 238 241 243 242 239 246 249 248 243 239 240 238 236 230 229 230 229 224 229 233 237 245